DECAYED

CZ-6A DEB, 61391 (Decayed)

Orbit data source: Space-Track

CZ-6A DEB, 61391 was space debris in LEO originally from a launch on Tue, 06 Aug 2024 UTC launched from the Taiyaun Space Center, China (TSC). Debris objects in space refer to the collection of defunct objects orbiting the Earth. Examples of debris include non-operational satellites, rocket bodies, and fragments generated from explosions, collisions, or faulty payload assembly.

Loading next visibility...
Identifier
61391, 2024-140XG
Orbit
Decayed
Country
Flag of CNCN / PRC
Related business
Manufacturer
SAST
Mission
Decayed spacecraft
Bus & Motor
Unknown
Mass
Unknown
Launch date (UTC)
2024-08-06 (1 year ago)
Launch vehicle
Unknown
Launch site
Taiyaun Space Center, China (TSC)
Object type
Payload
Rocket body
Debris
Shape & HBR
Unknown shape, 0.1 m
Radar Cross Section
Small (<0.1 m²)

Expand to show TLE details & history
Last TLE update: 9 months ago

TLE from 9 months ago
0 CZ-6A DEB
1 61391U 24140XG  25068.22150874  .13354568  00000-0  58236-1 0  9991
2 61391  88.9639 324.9084 0014418 114.3387 245.9398 15.79194178 27494
Epoch: 2025-03-09T05:18Z
TLE epoch observation values (Epoch: 2025-03-09T05:18:58.355Z)
Latitude
0.00003°
Longitude
78.00898°
Altitude
339.957 km
Speed
7.702 km/s
True Right ascension
21h 39m 38s
True Declination
0° 00' 00"
Sunlit
Object was in daylight at epoch
Visualization orbit readout
Latitude
Unknown
Longitude
Unknown
Altitude
Unknown
Speed
Unknown
Apparent Right ascension
Unknown
Apparent Declination
Unknown
Sunlit
N/A
Visualization observer readout
Local Sidereal Time
22:55:54
Azimuth
Unknown
Elevation
Unknown
Doppler factor
Unknown
Orbital elements
Apogee altitude
339.121 km
Perigee altitude
319.779 km
Semi-major axis
6,707.587 km
Eccentricity
0.00144
Inclination
88.9639°
RAAN
324.9084°
Arg. of periapsis
114.3387°
True anomaly
245.78905°
Mean anomaly
245.9398°
Eccentric anomaly
245.86441°
Mean motion
3.95088 °/min
Orbital period
91.12 mins
BSTAR
0.058236
Loading maneuver chart data...
Computing Atmospheric mass density...
Loading historical data...
Loading historical data...
Loading historical data...
Loading historical data...
Loading historical data...
Loading historical data...
Loading historical data...

Documentation

Showing up to 5 results
|